User: anonymous   Login
Location: Unspecified
(0.0000°N, 0.0000°E)
Time: 10:37:17
(UTC+00:00)
Language:

NOSS 8 (E) - Orbit

View from above orbital plane
View from above orbital plane
View from above satellite
View from above satellite

Ground track
Ground track

The orbit data is extracted from the following two-line orbital elements,

1 18009U 87043E   18115.82064447 0.00001000  00000-0  13084-3 0    04
2 18009  63.3130  25.0691 0882162  50.8612 309.1388 13.45063781    08
Epoch (UTC): 25 April 2018 19:41:43
Eccentricity: 0.0882162
inclination: 63.3130°
perigee height: 431 km
apogee height: 1749 km
right ascension of ascending node: 25.0691°
argument of perigee: 50.8612°
revolutions per day: 13.45063781
mean anomaly at epoch: 309.1388°
orbit number at epoch: 0

The dashed part of the orbit path shows where the satellite is in the earth's shadow,  

DLR